Weather History for KMWH - October, 2013

Change the Weather History Date:

Thursday, October 31, 2013

  Actual Average Record
Temperature  
Mean Temperature 47 °F 43 °F  
Max Temperature 65 °F 55 °F 65 °F (2013)
Min Temperature 29 °F 32 °F 5 °F (2002)
Degree Days  
Heating Degree Days 18 22  
Month to date heating degree days 502 486  
Since 1 July heating degree days 604 637  
Cooling Degree Days 0 0  
Month to date cooling degree days 0 1  
Year to date cooling degree days 948 615  
Moisture  
Dew Point 32 °F    
Average Humidity 61    
Maximum Humidity 85    
Minimum Humidity 37    
Precipitation  
Precipitation 0.00 in 0.03 in 0.30 in (1998)
Month to date precipitation 0.02 0.65  
Year to date precipitation 5.26 6.47  
Sea Level Pressure  
Sea Level Pressure 30.10 in    
Wind  
Wind Speed 7 mph (West)    
Max Wind Speed 20 mph    
Max Gust Speed 26 mph    
Visibility 10 miles    
Events      
T = Trace of Precipitation, MM = Missing Value Source: NWS Daily Summary

Daily Weather History Graph

Daily Weather History Graph

Search for Another Location

Airport or City:

Trip Planner

Search our weather history database for the weather conditions in past years. The results will help you decide how hot, cold, wet, or windy it might be!

Date:

Astronomy

Oct. 31, 2013 Rise Set
Actual Time 7:39 AM PDT 5:41 PM PDT
Civil Twilight 7:07 AM PDT 6:13 PM PDT
Nautical Twilight 6:31 AM PDT 6:49 PM PDT
Astronomical Twilight 5:55 AM PDT 7:25 PM PDT
Moon 4:22 AM PDT (10/31) 4:11 PM PDT (10/31)
Length of Visible Light 11h 05m
Length of Day
10h 02m
Waning Crescent, 9% of the Moon is Illuminated
Oct 31
Waning Crescent
Nov 3
New
Nov 9
First Quarter
Nov 17
Full
Nov 25
Last Quarter

Hourly Weather History & Observations

Time (PDT) Temp. Windchill Dew Point Humidity Pressure Visibility Wind Dir Wind Speed Gust Speed Precip Events Conditions
12:52 AM 37.9 °F - 27.0 °F 65% 30.05 in 10.0 mi Calm Calm - N/A   Mostly Cloudy
1:52 AM 37.9 °F - 28.0 °F 68% 30.05 in 10.0 mi Calm Calm - N/A   Mostly Cloudy
2:52 AM 34.0 °F 31.0 °F 27.0 °F 75% 30.06 in 10.0 mi North 3.5 mph - N/A   Partly Cloudy
3:52 AM 36.0 °F 32.1 °F 28.0 °F 73% 30.03 in 10.0 mi SSE 4.6 mph - N/A   Overcast
4:52 AM 32.0 °F 25.6 °F 26.1 °F 79% 30.03 in 10.0 mi North 6.9 mph - N/A   Clear
5:52 AM 30.0 °F - 25.0 °F 82% 30.06 in 7.0 mi Calm Calm - N/A   Clear
6:52 AM 30.0 °F 23.2 °F 27.0 °F 88% 30.07 in 10.0 mi North 6.9 mph - N/A   Partly Cloudy
7:52 AM 30.0 °F 23.2 °F 26.1 °F 85% 30.08 in 10.0 mi North 6.9 mph - N/A   Clear
8:52 AM 36.0 °F 31.1 °F 28.9 °F 76% 30.09 in 10.0 mi North 5.8 mph - N/A   Clear
9:52 AM 43.0 °F 38.8 °F 32.0 °F 65% 30.12 in 10.0 mi North 6.9 mph - N/A   Clear
10:52 AM 48.0 °F - 32.0 °F 54% 30.09 in 10.0 mi WSW 4.6 mph - N/A   Clear
11:52 AM 52.0 °F - 32.0 °F 47% 30.09 in 10.0 mi Variable 3.5 mph - N/A   Clear
12:52 PM 54.0 °F - 34.0 °F 47% 30.23 in 10.0 mi Variable 4.6 mph - N/A   Clear
1:52 PM 59.0 °F - 37.0 °F 44% 30.07 in 10.0 mi SSW 4.6 mph - N/A   Clear
2:52 PM 61.0 °F - 37.0 °F 41% 30.07 in 10.0 mi South 4.6 mph - N/A   Clear
3:52 PM 64.9 °F - 37.9 °F 37% 30.06 in 10.0 mi West 15.0 mph 18.4 mph N/A   Clear
4:52 PM 63.0 °F - 37.9 °F 40% 30.07 in 10.0 mi SW 8.1 mph - N/A   Clear
5:52 PM 57.9 °F - 37.9 °F 47% 30.08 in 10.0 mi West 10.4 mph - N/A   Clear
6:52 PM 55.0 °F - 37.9 °F 53% 30.10 in 10.0 mi SW 9.2 mph - N/A   Clear
7:52 PM 57.9 °F - 33.1 °F 39% 30.12 in 10.0 mi WNW 16.1 mph 25.3 mph N/A   Clear
8:52 PM 55.9 °F - 33.1 °F 42% 30.27 in 10.0 mi WNW 12.7 mph 24.2 mph N/A   Clear
9:52 PM 52.0 °F - 33.1 °F 49% 30.14 in 10.0 mi SW 5.8 mph - N/A   Clear
10:52 PM 48.0 °F - 34.0 °F 58% 30.17 in 10.0 mi SSW 4.6 mph - N/A   Clear
11:52 PM 45.0 °F 41.2 °F 35.1 °F 68% 30.18 in 10.0 mi WSW 6.9 mph - N/A   Clear